TIANYAN 01

Last updated on Tue Aug 25 2026 00:03:14 GMT+0000 (Coordinated Universal Time)

1 44881U 19093C 26236.63407000 .00001491 00000+0 17389-3 0 9991 2 44881 97.7487 307.1823 0012408 216.8702 143.1662 14.86611811361587
UTC large
Height (km)
Speed (km/s)
/
Latitude / Longitude
Inclination (degrees)
Orbital Period (minutes)
Azimuth
Elevation
Range (km)
Doppler Factor

Next 0 passes for location: London (51.5072 / 0.1276)

No passes found over London.
TIANYAN 01